Theta_e
361 362 358 359 357 352 345 338 316 319 313 309 313 314 314 329 329 324 323 327 321 328 334 329 328 327 323 320 321 323 323 319 317 307 303 312 343 348 347 345 347 352 354 358 361 364 362 363 365 365 367 367 366 365 364 366 366 365 365 364 363 361 361 361 361 360 360 361 360 361 362 362 362 362 362 361 362 362 362 362 362 362 361 360 361 361 362 362 362 362 362 363 363 364 364 364 364
363 359 358 360 353 345 332 332 315 311 308 305 311 320 319 325 326 322 322 324 327 329 330 328 327 329 335 328 330 330 325 333 322 322 333 344 348 347 346 346 350 352 356 359 361 364 360 363 366 367 366 368 366 365 365 365 365 365 365 365 363 362 362 362 362 363 363 363 363 362 362 362 361 361 361 360 360 360 361 361 360 360 361 361 361 361 361 362 362 362 363 363 364 363 364 363 364
362 359 356 357 350 341 338 334 312 308 304 303 308 315 327 321 321 324 327 330 334 336 329 328 327 335 334 331 325 321 316 338 337 339 339 346 341 342 344 348 352 355 358 360 362 363 360 363 367 368 366 367 366 364 364 365 365 365 365 364 363 363 363 363 363 363 363 363 362 362 362 362 362 361 360 359 359 358 359 360 361 362 362 361 361 361 361 362 362 363 363 364 364 364 365 366 367
362 360 353 350 334 337 324 318 311 306 304 306 308 320 321 321 323 328 332 334 337 331 329 326 324 337 330 322 326 333 328 331 337 338 336 341 339 344 344 350 355 357 359 361 364 362 359 363 367 367 367 366 364 364 365 366 364 364 365 364 363 363 363 363 362 361 361 361 362 362 362 362 362 362 361 361 360 360 359 361 361 362 362 362 362 361 361 362 362 363 364 365 365 365 366 366 367
359 360 356 345 332 323 319 316 313 310 308 310 307 320 324 325 326 330 332 336 336 335 330 328 330 338 335 330 334 325 325 335 337 340 338 342 345 345 347 353 356 358 359 362 363 361 359 366 367 367 367 366 364 366 365 364 362 365 364 364 363 363 363 362 360 360 360 362 363 363 362 363 363 362 362 361 360 360 361 361 362 361 362 363 363 363 363 363 363 363 364 365 365 365 366 367 367
355 353 355 346 330 335 321 312 312 312 316 319 315 320 326 329 329 330 331 335 338 338 337 332 330 330 332 336 339 329 336 327 337 338 340 340 344 346 350 355 357 357 360 362 363 360 358 367 367 367 366 366 366 366 364 362 363 364 364 364 363 363 362 361 360 361 362 362 362 362 362 362 363 362 363 362 363 363 363 364 364 363 363 363 362 362 362 363 363 364 364 364 365 366 367 367 369
347 344 342 339 332 331 313 310 312 315 317 326 321 323 327 331 332 330 330 330 334 336 341 334 336 332 328 333 337 342 344 341 338 339 342 343 345 348 353 355 357 357 360 362 362 360 359 367 368 367 366 366 367 366 362 362 363 362 363 364 362 363 362 361 361 361 362 362 362 362 362 363 364 364 364 364 364 365 365 363 364 363 363 363 363 363 363 363 364 364 365 366 366 367 367 368 369
356 338 336 324 318 319 313 315 315 317 318 330 330 327 330 331 334 331 329 330 328 331 335 338 337 332 328 338 326 341 343 345 343 344 344 344 345 349 354 356 355 357 360 362 362 360 363 367 367 367 366 367 367 366 362 363 364 363 363 363 362 362 363 361 361 362 362 362 361 362 362 364 365 365 365 364 365 363 364 363 364 364 363 363 363 363 363 364 364 365 366 366 367 368 369 369 369
347 342 339 321 313 316 314 315 317 326 327 331 331 333 336 335 337 330 329 332 333 333 332 335 336 326 328 330 329 338 338 343 344 346 344 344 345 351 355 355 355 356 359 361 361 360 361 366 367 367 367 367 366 366 365 365 365 362 363 363 363 362 361 362 362 362 362 362 362 362 362 361 363 365 364 364 363 364 363 363 364 364 364 364 363 364 364 364 365 366 367 367 368 368 369 369 370
339 336 323 318 315 311 311 312 313 319 324 331 330 330 331 333 333 334 330 330 333 332 333 337 336 328 330 326 329 334 336 344 344 343 343 344 347 352 354 355 356 356 358 359 361 361 361 365 366 367 366 367 366 366 365 365 365 361 363 362 362 362 360 361 361 361 362 362 362 362 362 363 363 364 364 363 364 363 363 363 364 365 365 364 364 364 365 365 366 367 367 367 368 369 369 370 370
328 330 330 315 309 309 309 311 316 321 325 329 331 335 336 335 333 332 333 334 337 334 333 336 331 330 332 330 329 338 343 343 341 339 342 344 348 351 352 355 357 357 357 358 359 361 363 361 365 367 367 367 367 366 365 365 364 362 363 361 362 362 360 362 361 362 362 362 362 363 363 362 363 364 364 364 364 364 364 365 365 365 365 365 365 365 365 365 366 368 368 368 369 369 370 370 371
324 322 319 310 309 310 315 314 316 321 327 329 328 336 338 337 337 330 330 328 332 332 332 335 328 334 328 328 327 336 341 341 341 342 343 346 348 351 352 355 357 358 358 358 360 361 363 363 363 366 367 367 366 366 366 365 364 362 363 361 360 362 361 362 361 362 363 362 362 362 362 362 363 364 364 364 364 364 365 365 366 366 365 366 366 366 366 367 367 368 368 369 370 370 371 371 371
328 323 314 310 312 315 316 316 315 323 321 324 329 335 340 335 331 332 331 333 331 330 330 335 337 335 324 326 332 337 337 339 342 343 344 345 347 349 351 354 357 358 359 359 359 362 363 363 362 363 365 367 367 366 366 365 363 363 363 362 361 362 362 362 363 363 362 362 362 362 362 362 363 364 364 365 365 365 366 366 366 366 367 366 366 366 367 368 369 369 369 370 371 372 372 372 373
330 326 317 310 318 317 315 315 317 316 316 326 332 336 338 335 334 335 333 330 330 330 336 338 337 336 329 328 327 330 334 340 342 343 344 344 346 348 350 354 355 357 358 358 360 362 362 362 362 362 363 363 362 363 366 365 364 363 362 361 362 362 362 362 362 363 363 363 363 363 363 363 363 363 364 365 365 366 366 366 367 367 368 368 368 369 369 370 371 370 371 371 372 373 374 374 375
331 329 318 313 314 314 315 313 316 317 315 327 332 333 333 337 337 337 334 330 330 338 339 342 338 332 323 326 324 329 334 338 341 343 342 343 345 348 350 353 355 356 357 358 361 361 361 361 361 361 362 361 361 360 361 362 364 363 363 362 363 362 363 363 363 363 363 362 363 364 365 365 364 364 365 365 366 366 367 367 368 368 369 370 370 370 371 371 372 372 373 374 374 374 375 376 377
335 326 317 314 310 311 313 317 320 318 317 329 333 336 331 336 339 334 337 339 334 339 339 333 340 331 334 331 332 334 337 339 341 341 340 341 346 349 351 352 354 356 357 358 360 361 362 360 360 360 361 360 360 359 359 360 363 364 362 363 363 363 363 362 363 363 364 363 363 364 365 366 365 366 366 366 368 369 369 368 369 369 370 371 372 372 372 372 373 374 374 375 377 377 378 378 378
336 327 317 309 311 312 314 317 318 313 321 328 333 333 327 329 340 341 346 342 333 333 337 338 336 342 336 337 335 337 338 340 341 338 339 341 345 347 349 351 353 354 356 357 359 360 361 360 359 358 359 360 360 359 358 359 362 364 362 363 364 364 362 362 362 363 364 364 364 364 364 363 362 361 361 360 365 364 367 368 369 370 370 371 372 372 372 371 372 374 376 377 377 378 377 378 379
329 319 312 309 310 314 318 319 321 323 322 326 329 331 331 327 332 340 340 334 338 335 337 338 339 338 340 338 339 338 338 337 336 335 337 340 344 344 346 348 350 349 352 355 358 360 360 360 358 357 357 358 358 358 358 359 360 362 358 358 361 361 362 362 362 360 362 362 363 362 361 363 363 360 359 364 363 363 363 366 370 371 371 371 372 370 370 370 372 373 372 372 372 372 371 369 374
324 316 314 311 312 318 324 326 325 325 324 327 329 331 332 331 331 337 329 331 332 330 333 336 334 335 337 337 337 336 335 334 334 335 337 339 341 342 343 346 348 348 350 353 356 358 360 360 359 357 356 357 357 356 357 358 358 359 357 356 358 362 363 363 359 362 360 359 359 359 363 360 359 360 360 363 365 369 368 369 369 369 371 371 370 369 369 370 371 369 367 366 367 364 360 362 366
327 319 313 312 320 323 327 331 328 330 331 327 328 330 332 334 333 336 330 329 332 328 328 331 331 331 334 335 336 335 334 333 333 334 336 339 341 342 343 345 346 347 349 351 354 358 360 359 358 357 356 356 356 356 357 356 357 356 355 356 356 356 356 359 357 356 358 357 358 357 358 359 360 358 364 366 367 363 361 364 367 368 369 367 368 366 364 364 364 361 361 362 358 355 355 357 360
327 321 315 317 323 324 329 333 332 332 333 329 328 330 330 333 335 332 331 327 327 330 334 333 332 332 334 335 335 334 333 332 332 334 336 339 341 343 344 346 346 348 349 352 353 355 358 358 357 356 357 356 356 357 357 355 356 356 355 355 355 355 354 354 355 354 355 357 357 357 357 359 359 358 358 358 359 359 359 358 359 359 360 357 364 358 357 354 355 352 352 354 352 352 351 352 356
328 323 324 324 327 326 329 334 336 333 333 329 329 327 328 338 337 332 331 324 323 329 335 336 336 336 335 334 334 334 333 331 332 333 335 338 339 341 344 346 348 349 350 350 351 354 357 358 358 357 357 356 356 356 356 357 358 355 354 354 354 354 354 354 354 354 354 354 356 357 359 358 358 358 357 358 358 359 358 357 358 358 357 358 360 356 354 354 353 352 351 351 351 352 350 350 349
320 322 325 327 328 327 331 335 335 333 330 328 328 330 335 330 332 333 333 328 332 341 338 338 338 338 338 338 336 334 333 332 332 333 335 337 339 341 343 345 346 347 348 349 351 353 356 357 357 358 357 357 356 356 357 357 356 355 354 354 354 354 354 354 354 354 354 354 354 357 358 356 356 357 357 358 357 358 357 358 357 358 357 357 358 356 354 354 353 352 352 351 351 350 349 349 349
324 318 324 327 331 329 333 335 334 332 330 329 332 337 329 329 324 332 331 334 339 347 339 340 340 339 340 337 336 335 334 334 333 335 336 338 340 341 343 345 347 348 348 349 350 352 355 356 357 358 357 357 357 357 357 355 355 355 354 357 358 356 355 354 354 355 356 355 356 356 359 357 356 356 356 357 357 358 357 358 358 358 358 357 358 357 354 354 353 353 352 350 350 350 348 348 349
324 321 325 328 332 333 335 335 334 332 331 334 333 329 327 330 327 333 331 334 339 342 341 340 339 338 338 337 336 336 336 336 336 337 338 339 342 344 345 346 347 348 347 348 350 351 353 356 357 356 357 357 357 357 356 356 356 356 355 355 354 358 356 354 354 356 356 356 357 357 358 356 355 356 356 357 357 357 357 357 356 356 357 358 357 355 355 354 353 352 351 350 351 350 349 349 352
326 325 328 331 331 335 335 333 332 332 332 334 329 327 329 333 338 330 332 335 340 342 339 339 338 337 336 337 338 337 338 338 338 338 339 341 343 343 344 346 347 347 348 349 349 350 352 355 355 356 356 356 356 356 355 355 355 354 355 355 354 358 356 355 356 355 355 355 355 356 356 357 355 355 355 357 356 356 356 356 356 355 355 356 356 355 356 354 353 351 350 351 349 349 350 351 354
327 326 327 329 331 334 334 331 331 333 333 333 327 326 328 335 330 322 330 335 341 341 339 338 337 336 336 337 338 339 338 339 340 341 342 342 343 344 345 347 347 348 350 349 350 350 353 354 354 355 356 357 356 355 355 355 355 354 355 355 354 355 356 357 356 355 354 355 355 356 355 356 357 356 356 356 356 356 356 354 354 355 354 355 356 355 356 355 353 351 351 350 350 351 351 352 352
326 327 329 328 328 332 332 331 330 330 330 333 330 326 330 333 329 326 331 336 340 337 337 337 336 336 336 337 338 339 339 340 342 342 341 341 342 344 345 346 347 349 349 349 350 352 352 353 354 355 356 356 356 355 356 355 355 354 355 354 354 354 355 354 354 354 355 354 354 354 354 354 357 356 356 356 356 355 355 354 354 354 354 355 357 355 355 354 354 352 351 351 352 353 353 351 351
325 328 320 321 323 325 328 329 329 330 328 333 331 327 323 326 324 332 335 340 338 337 336 336 336 336 336 337 338 338 338 340 341 341 342 343 344 346 346 349 349 349 351 352 352 353 352 353 353 354 356 355 355 354 354 355 355 355 355 354 354 354 354 354 353 353 354 354 354 353 354 354 357 356 356 357 359 357 355 354 354 356 356 356 355 354 354 354 351 350 351 354 353 354 349 350 349
328 325 320 318 314 314 321 331 330 328 329 333 329 307 308 319 330 332 336 337 336 336 335 336 335 336 336 337 337 338 339 339 340 341 342 343 344 346 346 349 351 350 351 352 353 352 353 354 355 355 355 354 355 355 355 354 355 355 356 355 355 354 353 353 354 353 355 355 354 354 353 354 356 356 357 357 358 357 357 356 355 355 355 355 355 355 353 352 351 352 351 353 354 352 348 349 349
316 320 319 312 308 306 317 326 327 326 331 332 326 308 310 316 321 325 334 336 334 333 335 335 335 336 336 336 337 337 339 340 340 342 343 344 345 346 347 349 350 351 352 351 352 353 354 354 355 354 356 354 355 355 355 354 355 355 356 355 355 354 354 353 353 354 354 354 354 353 353 354 356 356 357 357 357 357 356 356 356 355 356 356 355 354 353 353 353 351 353 351 350 350 349 352 350
316 308 301 305 309 306 314 325 327 324 328 332 323 307 312 317 322 325 332 335 334 332 334 335 335 336 336 336 337 337 338 340 342 343 344 344 345 345 346 347 350 350 350 351 352 353 352 354 356 355 355 354 354 355 355 355 356 355 355 358 355 354 354 352 352 352 353 353 354 353 353 355 355 356 357 358 357 357 356 356 356 356 356 356 355 354 355 353 352 351 352 351 349 349 351 349 350
304 305 300 304 306 307 312 320 328 328 328 329 322 310 311 313 319 331 334 334 333 331 332 334 335 336 337 337 337 337 338 339 341 342 344 344 345 346 346 347 348 350 350 351 351 351 351 352 355 354 354 354 354 354 356 356 355 355 354 355 355 354 353 352 352 352 352 352 352 352 353 354 356 356 358 359 358 357 357 356 356 356 356 355 353 352 351 353 351 350 353 355 352 350 348 347 349
295 306 304 303 306 305 306 312 322 326 327 322 325 317 316 315 320 331 332 333 331 330 330 332 334 335 336 337 338 338 338 339 339 341 343 343 345 346 347 350 348 349 350 350 351 351 351 351 352 354 354 354 354 354 355 355 355 355 354 354 357 353 353 353 353 352 351 351 351 351 353 354 357 357 358 359 358 358 358 357 357 357 356 354 353 353 353 353 351 351 351 352 353 351 349 349 348
296 301 302 303 305 308 307 307 313 326 325 321 321 321 321 323 324 324 332 332 330 329 331 332 333 334 335 336 337 338 338 339 340 342 344 344 345 346 346 347 348 348 349 349 350 351 352 351 351 352 354 353 353 353 354 355 355 354 353 353 353 353 352 352 352 351 351 351 351 351 353 354 357 358 358 359 358 359 359 357 357 357 357 355 354 353 353 353 354 353 351 351 354 353 352 351 350
299 301 302 302 301 302 303 310 316 327 321 317 320 318 321 323 323 324 329 331 329 329 330 330 332 333 333 334 336 338 338 339 342 345 346 346 345 345 345 346 347 348 349 349 349 349 351 351 350 350 352 352 352 352 353 353 352 351 349 350 349 350 350 351 351 351 351 351 352 352 353 354 356 360 359 359 359 359 358 357 357 356 356 355 353 352 352 350 349 349 350 351 354 354 357 354 351
301 304 305 303 302 303 301 302 312 327 319 319 319 321 319 320 319 321 326 331 329 328 328 328 330 332 333 334 335 337 338 339 343 345 346 347 347 346 346 346 346 346 347 347 347 346 348 349 350 348 350 351 350 350 350 350 349 348 349 348 347 348 349 349 350 350 350 351 352 352 353 354 355 357 360 359 358 359 360 358 357 356 356 356 354 353 352 352 351 350 355 359 356 351 351 352 350
299 297 296 295 298 296 302 303 314 326 319 312 317 318 319 320 321 321 326 329 328 328 327 328 329 331 332 333 334 335 338 342 343 342 344 346 348 347 346 345 347 343 344 345 345 345 346 348 348 348 350 350 350 350 349 350 350 349 348 348 348 348 348 348 348 349 350 351 352 353 353 353 354 355 359 359 359 357 357 358 357 356 356 356 356 356 354 357 357 355 355 352 354 350 351 351 351
298 297 295 295 295 296 299 306 321 324 319 309 314 316 317 318 319 321 323 328 329 331 330 330 329 330 331 333 334 335 336 337 339 340 342 344 347 348 346 346 345 346 344 344 344 344 345 346 348 348 349 349 349 350 350 349 350 351 350 349 349 348 350 351 350 351 352 351 351 352 353 353 353 353 355 359 358 358 357 357 357 357 356 357 356 355 355 355 355 354 353 350 350 351 351 353 352
295 295 294 292 296 296 293 300 317 320 314 309 312 314 314 307 310 314 318 324 327 331 331 330 331 330 331 333 334 334 335 336 336 338 340 342 343 346 346 345 345 345 346 344 342 342 344 346 346 347 348 349 349 350 352 350 351 351 352 351 351 350 348 351 351 352 352 352 351 352 353 353 353 353 354 355 359 358 357 356 356 357 356 357 356 354 353 352 353 352 352 353 352 348 348 349 353
293 296 293 294 296 296 295 298 310 315 318 310 303 299 298 302 309 311 314 319 323 327 331 329 330 332 333 334 334 335 335 336 336 338 339 340 342 343 343 346 346 345 344 345 343 341 343 343 345 346 347 348 349 351 351 351 351 351 350 350 353 350 351 352 349 349 350 352 352 351 351 353 353 353 353 354 357 357 357 357 356 357 356 356 356 354 353 352 353 353 352 352 352 350 347 347 350
292 294 297 297 297 300 311 312 309 300 305 311 308 294 294 297 307 311 312 313 320 322 326 326 328 330 330 331 332 334 337 337 337 337 339 340 341 342 343 346 345 345 345 346 346 344 343 343 345 346 346 348 348 349 350 350 349 348 345 344 343 343 343 344 344 345 347 348 350 353 353 353 352 353 353 354 355 358 356 357 357 356 356 357 356 355 354 353 353 352 353 353 352 352 351 348 346
294 297 297 296 298 304 311 307 302 297 293 303 308 297 293 296 305 311 313 311 314 318 319 321 325 327 329 330 331 332 334 336 337 338 339 340 340 341 342 343 344 344 345 347 347 347 344 343 344 345 346 346 348 349 349 351 348 347 346 345 345 344 342 344 347 348 348 349 351 351 352 353 352 352 353 353 354 356 358 357 357 356 356 356 358 356 354 353 353 353 355 354 353 354 351 348 347
297 298 296 297 302 306 310 308 302 297 303 302 300 298 295 294 300 311 313 311 311 314 316 317 319 322 328 331 332 332 333 335 336 337 337 339 340 340 341 343 344 344 346 346 346 347 346 344 343 344 345 347 347 348 348 350 347 347 346 345 346 344 344 344 346 348 349 351 350 350 351 352 353 353 352 353 354 355 358 358 357 357 356 356 357 356 354 354 354 355 357 357 355 355 352 349 348
298 299 298 297 298 299 307 307 301 295 296 290 292 301 296 295 300 312 313 309 311 313 315 317 321 325 328 331 332 333 334 335 336 336 337 337 338 340 341 341 343 345 346 346 345 346 346 346 344 343 344 346 347 348 348 349 350 348 346 345 344 347 346 346 349 351 350 352 350 350 350 350 352 354 354 353 354 355 360 358 358 357 356 356 359 357 356 355 354 354 354 355 355 355 352 351 350
300 298 300 300 302 302 302 299 299 295 290 289 294 297 293 290 299 309 312 310 311 313 314 319 323 325 326 328 329 331 333 335 336 337 338 338 338 339 341 342 342 343 345 347 347 346 346 345 344 342 342 344 346 346 348 348 349 350 346 346 345 345 347 348 348 348 349 349 349 349 349 349 350 353 354 355 355 355 357 360 358 356 356 356 359 357 356 356 355 355 355 354 355 354 355 355 352
304 298 299 296 297 297 298 295 293 290 289 290 294 299 296 291 299 305 307 311 313 314 315 319 323 325 326 328 329 330 330 331 333 335 338 338 339 339 340 340 341 342 344 345 345 345 345 344 343 342 341 342 345 345 347 346 348 349 347 346 346 345 346 346 346 346 347 348 347 347 348 348 349 351 353 355 355 355 356 359 358 357 357 359 360 357 356 355 355 355 354 355 356 355 353 353 354
299 295 294 294 295 294 292 290 291 287 285 289 300 302 299 293 299 307 312 316 319 317 317 318 321 322 324 326 328 329 330 331 332 333 334 336 337 339 341 340 340 341 342 343 344 345 345 344 343 342 342 342 343 344 345 346 346 347 348 347 346 346 346 346 346 345 346 347 347 347 348 348 348 350 352 353 354 354 356 356 359 358 358 357 357 358 357 356 356 355 355 355 355 355 355 356 353
298 296 295 291 287 287 290 287 289 288 288 300 299 302 300 300 303 311 314 316 319 322 321 320 321 322 323 325 326 327 329 330 331 331 332 333 334 336 338 340 341 340 340 341 343 344 345 344 343 342 342 342 343 344 344 345 346 346 347 347 347 348 347 347 347 346 347 347 348 347 348 347 347 348 350 351 353 354 355 355 356 357 357 357 357 357 357 358 356 355 355 354 355 355 355 355 353
298 299 290 288 283 281 282 281 286 285 292 297 299 301 299 302 306 311 314 316 319 323 324 324 323 323 323 324 325 327 328 329 330 331 331 332 333 334 335 337 339 340 341 341 342 344 344 344 344 342 342 343 344 344 344 344 345 346 347 348 348 348 348 347 347 347 348 348 348 348 348 348 347 347 349 350 353 354 354 355 356 356 358 358 358 357 357 357 357 355 355 355 354 355 355 354 354
301 295 296 293 285 287 286 283 287 286 289 295 298 298 296 300 304 315 316 318 319 322 325 325 326 325 324 324 324 326 327 328 330 330 331 332 333 333 334 336 338 339 341 342 342 343 343 343 344 344 343 343 344 345 345 344 345 346 347 348 348 348 348 348 348 349 349 349 349 349 349 349 348 349 349 351 354 354 354 355 355 355 356 357 358 358 357 358 359 358 358 356 356 354 354 353 352
295 296 296 295 294 293 293 286 287 287 289 293 295 298 301 303 313 319 319 319 319 323 322 324 323 326 324 323 324 325 327 328 329 330 330 332 333 334 335 336 337 339 340 341 342 343 343 343 344 344 344 344 344 346 346 345 346 346 347 347 348 349 351 349 350 351 351 350 350 349 349 349 350 350 351 352 353 354 354 354 355 355 356 356 357 358 357 357 357 357 356 357 355 355 355 354 354
297 299 295 297 298 298 294 300 295 294 289 292 296 300 304 307 309 312 315 316 316 319 320 321 321 323 322 322 324 325 326 328 329 329 330 331 332 334 335 336 337 339 339 340 341 342 343 343 344 344 345 345 345 346 346 347 347 347 347 347 348 349 349 349 349 349 350 351 351 350 350 349 350 351 351 353 353 354 354 354 353 354 355 356 356 357 357 358 357 357 355 355 354 355 357 354 354
294 294 294 300 301 297 294 289 287 285 286 287 296 298 296 298 297 309 313 312 313 316 317 319 320 322 322 322 324 325 326 327 329 330 330 331 332 333 335 336 338 339 340 341 341 343 343 343 344 344 344 344 345 345 346 347 347 347 348 349 350 349 349 349 350 350 351 351 350 351 351 349 350 351 352 353 354 353 354 358 354 354 355 355 356 356 357 357 357 356 355 355 355 356 354 355 356
302 300 301 298 292 293 290 290 288 285 285 284 291 298 298 297 298 305 309 310 311 312 315 318 319 321 321 322 324 325 326 327 327 328 330 330 331 332 334 335 338 339 341 342 342 343 344 343 344 344 344 345 346 346 347 348 349 349 349 350 349 349 349 350 350 352 351 351 350 350 350 350 350 352 354 354 354 353 354 354 355 354 354 356 356 356 357 357 357 355 355 354 354 353 352 352 355
301 302 299 301 294 288 292 292 288 289 284 285 285 294 293 302 302 306 309 310 311 313 316 316 319 321 322 322 323 324 325 325 326 328 329 330 331 332 334 335 336 338 340 342 343 344 344 344 344 345 345 346 346 347 347 347 349 350 350 350 350 350 350 350 350 351 350 350 351 352 351 350 349 352 353 353 353 353 353 353 354 354 354 354 355 356 356 356 356 355 355 353 353 352 350 351 353
296 297 294 294 294 296 294 294 293 290 284 283 285 287 292 297 305 310 311 311 312 315 317 317 318 320 322 322 323 324 324 325 326 327 329 330 331 332 334 335 337 339 340 342 343 344 344 344 343 344 344 345 346 346 347 348 349 350 351 350 350 350 349 350 352 351 351 351 351 354 353 352 352 350 352 352 353 354 354 354 354 355 354 355 355 355 355 356 356 355 355 355 355 353 352 352 354
297 296 297 296 295 296 291 289 292 292 290 285 285 286 289 296 313 313 312 312 315 317 318 319 319 321 320 321 324 324 324 324 325 327 329 329 330 332 333 335 337 338 339 340 342 343 344 343 343 344 344 345 346 347 347 348 349 350 349 350 350 351 351 352 352 353 350 352 351 352 354 354 352 351 349 349 350 351 352 353 353 354 355 355 355 355 356 355 354 354 354 353 354 353 352 352 353
Wind_Speed
6 6 5 6 3 4 2 1 0 1 1 2 1 2 1 1 1 1 3 5 6 3 2 12 10 6 3 3 6 3 1 13 3 8 7 2 2 10 10 10 8 11 9 6 6 6 7 11 11 12 13 12 11 10 9 9 10 10 9 9 9 9 9 9 8 7 7 7 7 6 6 6 5 4 4 4 4 4 4 4 4 5 5 6 5 6 6 6 7 7 7 7 8 8 9 9 9
4 5 5 4 3 2 1 1 2 2 3 2 1 1 1 1 1 3 7 3 1 4 7 12 10 4 6 6 4 3 2 2 2 1 1 2 8 6 9 11 11 12 8 7 6 6 6 7 11 11 13 13 11 10 9 9 9 9 9 9 8 8 9 8 8 7 7 7 7 7 6 5 4 4 3 3 4 4 5 5 5 5 4 4 5 5 6 6 7 7 8 8 8 8 8 9 10
5 5 3 2 0 1 1 0 1 0 3 4 1 0 1 1 2 2 1 1 1 3 9 11 9 1 4 4 2 1 3 2 4 4 3 7 13 7 9 10 11 11 10 7 7 7 5 6 11 10 13 13 12 11 10 9 8 9 9 8 8 8 8 7 7 7 7 7 7 6 6 5 4 3 3 3 2 3 3 3 4 4 4 5 6 6 7 7 7 8 8 9 9 9 9 10 11
5 2 3 2 0 0 0 1 2 2 2 2 0 1 0 1 2 4 1 0 1 8 8 9 7 0 5 3 3 4 1 1 3 8 6 10 4 10 10 12 11 9 8 7 7 7 5 8 12 12 12 13 12 11 10 10 9 8 8 8 8 8 7 7 7 7 7 6 6 5 5 4 3 3 3 2 2 1 1 4 5 5 5 6 7 7 8 8 8 9 10 10 10 10 10 10 11
4 2 1 0 0 1 1 1 2 1 2 3 2 1 1 0 2 2 2 1 3 6 5 7 3 2 2 2 2 1 4 1 3 4 2 4 6 9 11 12 11 10 9 9 8 7 5 13 13 13 12 13 12 11 10 10 10 8 8 7 8 7 7 6 6 6 5 5 4 4 4 3 3 3 2 1 1 0 2 3 4 5 6 7 8 9 10 10 10 11 11 11 11 11 11 11 11
3 1 0 1 1 0 2 3 4 3 1 1 1 1 1 1 2 2 3 4 4 4 3 6 3 3 1 0 1 1 4 3 5 3 8 6 12 11 13 12 11 10 10 9 8 6 5 14 14 14 13 12 11 11 10 9 9 8 8 7 7 7 6 5 5 5 4 4 3 3 3 2 2 2 1 0 1 1 3 4 5 5 6 7 8 9 10 11 11 11 12 12 12 11 11 12 12
2 1 0 0 1 1 3 3 1 1 1 2 1 0 1 0 2 5 5 5 3 3 1 2 4 4 2 0 1 1 0 6 6 3 8 8 12 12 13 12 12 11 11 9 8 6 6 15 14 13 13 12 12 11 10 9 8 8 7 7 6 6 6 6 5 5 3 3 3 2 2 2 1 1 1 0 1 3 4 5 6 7 7 8 9 9 10 11 11 12 12 12 12 12 12 12 12
1 0 1 1 1 2 2 1 1 2 1 0 0 1 0 2 2 4 5 2 3 1 0 1 3 5 3 3 2 1 4 0 4 10 9 12 13 13 13 12 13 11 11 9 9 6 10 15 13 13 13 12 12 12 11 10 8 7 7 6 6 6 6 6 5 5 4 3 2 1 2 2 1 0 1 2 3 4 5 6 7 7 8 8 8 9 10 11 11 12 12 12 12 13 13 12 12
3 0 0 1 2 1 2 1 1 1 1 1 1 0 3 0 1 5 5 2 2 1 3 3 3 6 3 2 1 0 2 5 10 12 11 12 14 14 11 13 13 11 11 10 8 6 6 14 14 14 13 12 12 12 11 10 9 8 7 7 6 6 6 6 5 5 4 3 2 2 1 1 2 1 2 3 4 5 6 7 8 8 8 8 9 10 10 11 11 12 12 13 13 13 13 13 12
1 1 2 1 1 3 2 2 4 0 1 1 1 2 2 1 3 2 5 3 0 4 3 4 3 4 1 2 1 1 2 7 12 11 11 12 13 12 13 13 13 14 12 10 9 7 5 12 15 14 13 12 12 11 11 10 9 8 7 7 6 6 5 5 5 4 4 4 3 3 3 2 1 2 3 3 4 5 7 8 8 9 9 9 10 10 10 11 12 12 12 13 13 13 13 13 13
3 2 2 1 4 2 3 3 2 2 2 1 2 2 1 1 3 3 2 2 1 2 5 5 3 4 2 0 0 2 6 9 13 13 13 13 12 12 12 11 12 13 12 11 10 7 6 8 14 14 13 13 12 12 11 10 10 9 8 8 6 6 5 5 5 4 4 4 4 4 4 3 3 3 4 4 5 6 8 9 9 10 9 10 10 11 11 11 11 12 13 13 13 13 13 13 13
3 3 3 3 3 0 1 1 3 4 3 2 2 2 1 2 2 4 2 3 2 0 2 5 3 5 3 0 1 1 6 6 11 12 13 12 11 11 11 9 11 11 12 12 9 7 7 8 8 12 15 14 13 12 10 11 10 9 9 8 7 6 6 5 5 4 5 5 4 5 4 3 3 4 4 5 6 7 8 9 10 10 10 10 11 11 12 11 12 12 12 13 13 13 13 13 12
1 0 3 3 0 1 2 1 2 3 3 1 2 0 2 4 2 3 3 3 4 3 2 4 5 3 2 1 0 3 4 3 8 13 13 10 10 9 8 9 10 10 10 10 9 8 7 7 7 7 10 16 13 12 11 11 10 9 9 8 7 7 7 6 6 6 6 5 5 5 5 4 5 5 6 7 7 8 8 10 10 11 11 11 11 12 12 12 12 12 12 13 13 13 13 13 12
0 1 1 1 1 1 1 1 2 3 2 1 1 2 2 3 2 2 4 2 4 3 1 6 5 4 2 2 1 3 4 5 10 13 10 9 8 8 9 8 9 9 9 9 9 9 7 7 7 6 9 9 7 10 12 12 11 10 10 8 8 8 8 8 7 7 7 6 6 6 6 6 6 6 7 8 8 9 10 10 11 11 11 12 12 12 13 12 12 12 13 13 13 13 13 12 12
1 0 3 3 1 1 2 1 1 1 4 2 2 3 2 2 2 3 3 2 2 2 1 3 2 3 4 5 4 7 7 10 11 13 11 9 9 8 8 8 8 8 8 8 8 10 9 7 6 6 6 6 7 5 5 8 12 10 10 9 8 9 8 7 7 7 7 6 7 7 7 7 6 7 8 8 8 9 10 10 10 11 12 12 12 12 13 13 13 13 13 13 13 13 13 12 12
2 2 3 0 0 1 1 1 0 2 5 2 3 4 4 1 2 2 2 2 1 3 7 3 2 2 2 9 3 11 12 12 12 13 11 10 8 7 7 7 7 7 7 8 8 8 8 7 5 6 5 6 5 4 5 3 9 11 10 10 9 10 9 8 9 8 7 7 8 8 8 6 6 5 8 7 9 11 12 11 12 12 13 13 13 13 13 13 13 13 14 14 14 14 14 13 12
1 2 1 2 0 1 1 2 4 2 2 1 3 3 4 3 1 1 2 0 4 5 3 1 4 2 4 2 9 14 13 13 12 14 12 9 8 7 6 6 6 7 7 7 7 8 8 7 6 5 5 5 5 5 4 4 4 11 9 11 12 11 10 10 8 9 8 8 7 7 7 5 3 3 4 5 8 7 10 12 13 13 13 13 12 12 12 12 12 13 13 13 14 14 13 13 12
1 0 1 1 1 1 3 4 6 1 3 3 4 4 3 3 2 2 3 2 1 3 3 2 3 3 4 5 13 15 15 15 14 16 12 11 8 9 9 8 8 9 8 7 7 8 8 7 7 5 4 5 5 4 4 3 3 8 5 5 4 6 8 8 5 3 5 2 8 6 2 2 3 3 4 5 5 6 7 12 13 14 12 12 11 12 12 12 12 12 12 12 13 13 13 6 5
1 1 1 2 3 3 3 2 5 2 2 4 4 5 4 2 5 3 3 2 3 3 3 3 4 5 9 12 14 16 15 14 14 14 15 14 11 12 10 9 8 8 8 7 6 9 7 6 6 6 5 4 5 4 4 4 5 3 4 3 3 6 4 5 3 3 2 2 3 4 3 3 3 4 4 5 6 10 10 12 13 13 12 12 12 12 11 10 9 10 11 11 11 11 6 4 4
2 2 2 4 5 2 3 2 4 5 1 4 5 4 5 2 3 2 2 5 4 6 6 2 4 5 10 12 15 15 15 14 13 14 15 13 12 12 11 11 10 9 9 7 7 7 7 6 7 6 5 5 5 4 4 4 4 3 3 4 4 3 3 3 2 3 3 2 3 3 3 3 4 4 6 9 9 5 6 10 12 12 10 9 11 7 8 7 9 8 9 11 7 3 4 4 4
1 1 3 3 1 1 2 3 4 2 0 3 3 2 2 3 2 4 4 5 5 5 7 10 11 11 12 14 15 15 15 15 13 12 13 13 11 9 10 10 9 9 7 6 6 7 9 8 7 6 6 6 6 5 5 5 4 4 3 4 4 4 4 4 3 3 3 3 3 3 4 3 4 4 4 4 4 4 4 5 5 5 4 5 7 5 5 5 5 5 6 6 5 5 5 5 4
2 6 4 2 1 0 3 4 1 2 3 3 3 6 5 2 1 4 7 7 7 10 10 9 9 12 15 15 15 15 16 16 15 14 15 15 15 13 9 8 7 7 7 8 8 8 9 8 7 6 6 6 6 5 5 5 6 6 4 3 3 4 5 5 4 3 4 3 3 3 3 5 5 4 4 5 5 4 5 4 5 4 4 5 4 4 5 5 5 4 5 6 5 4 4 4 4
2 3 3 3 2 2 0 2 1 5 3 4 3 3 2 5 1 3 4 10 2 1 3 8 12 14 15 16 16 15 16 17 16 16 16 15 14 13 12 9 9 9 7 7 7 7 7 9 8 7 7 6 6 5 4 5 5 5 4 3 3 4 4 5 5 4 4 3 4 4 5 5 5 4 5 5 6 4 4 4 5 4 4 5 3 4 5 4 4 5 5 5 5 5 5 5 5
2 5 1 2 4 4 2 3 4 3 7 5 3 2 2 3 3 1 5 9 2 3 4 10 11 11 13 15 16 18 18 19 17 15 15 15 14 14 12 11 8 6 7 8 7 7 7 11 10 8 8 7 6 6 5 5 5 5 4 5 5 5 5 5 5 4 3 4 4 4 4 5 5 5 5 6 5 5 4 4 4 4 4 4 3 3 4 4 5 4 5 6 6 5 5 6 5
3 4 3 1 2 2 1 3 4 3 1 1 3 3 4 6 3 1 6 10 3 1 1 9 12 12 13 15 16 14 14 13 14 12 10 9 10 10 8 7 8 8 9 9 8 8 9 8 11 11 9 9 7 6 6 5 5 5 5 6 6 6 5 5 4 3 4 3 4 5 5 5 5 5 5 5 5 5 5 5 4 4 4 4 3 4 3 4 5 5 5 5 5 5 5 5 5
6 8 1 1 0 1 0 3 3 3 2 3 3 4 2 2 3 4 9 8 4 2 5 9 12 13 14 14 16 15 15 16 15 14 14 11 10 12 11 10 10 11 11 9 9 9 8 9 10 12 10 8 7 7 6 6 5 6 6 7 7 5 6 5 4 4 4 3 4 4 5 5 5 5 5 5 4 5 5 5 4 4 4 4 3 4 3 3 4 5 5 4 5 5 5 5 4
4 4 4 2 1 0 0 4 3 2 1 3 4 3 2 1 5 7 2 5 5 6 6 8 11 14 14 13 13 14 15 16 17 13 11 10 11 12 12 11 12 11 10 11 10 8 8 9 10 11 10 8 7 8 7 7 6 7 7 7 6 6 5 4 4 4 4 4 4 5 5 5 5 5 5 6 5 5 5 5 4 3 4 4 2 4 3 3 3 3 4 4 5 5 5 4 4
3 3 3 2 4 1 1 0 2 2 1 5 3 3 0 0 2 9 7 2 7 8 7 8 10 11 12 13 13 12 13 13 12 13 16 15 13 13 13 12 13 11 12 12 10 8 9 11 10 11 11 9 8 8 8 8 7 7 8 6 6 6 5 5 5 5 5 5 5 5 5 5 5 6 6 6 5 5 5 5 4 4 4 4 3 3 3 3 3 4 4 3 4 4 4 4 4
1 4 1 2 2 1 1 4 3 4 1 5 2 1 3 2 5 8 2 3 5 8 8 9 9 10 11 11 11 10 11 12 11 12 15 14 11 11 13 12 11 11 9 11 10 10 11 10 10 11 10 10 10 10 9 8 7 7 6 7 7 6 6 5 6 6 6 5 5 6 6 6 5 6 6 6 6 5 5 5 4 4 4 4 3 3 3 3 3 4 5 2 3 3 4 5 4
3 3 1 3 4 4 5 0 2 5 0 5 3 3 6 8 13 2 1 7 6 7 8 8 7 8 8 9 9 10 9 10 12 12 11 11 11 11 13 12 12 10 8 7 10 11 9 7 8 8 10 12 12 10 9 8 8 7 6 7 7 6 6 6 6 6 6 5 5 6 6 6 6 6 6 7 6 5 5 5 5 5 4 4 3 3 3 3 4 4 4 4 4 4 5 5 4
2 1 3 0 1 3 3 1 3 4 1 5 1 1 8 7 7 6 3 7 9 8 8 8 7 6 7 7 8 9 10 12 13 12 11 12 11 10 12 11 12 12 8 9 12 12 11 9 8 8 10 12 11 11 11 10 8 7 7 7 6 7 6 7 6 6 6 6 5 5 6 6 7 7 7 7 6 6 5 5 5 5 4 3 3 3 3 3 3 4 4 4 4 4 3 4 4
1 2 3 4 2 5 6 1 7 7 1 1 3 1 8 8 9 4 3 6 7 8 7 8 6 7 7 7 8 8 9 9 10 11 11 12 12 11 12 13 12 12 12 11 10 10 11 11 10 10 10 12 12 12 11 10 9 8 7 7 7 7 7 6 6 6 6 5 5 5 6 6 7 7 7 7 6 6 5 5 6 5 4 3 3 3 2 3 3 4 3 1 4 4 4 5 4
4 1 3 2 0 4 6 1 2 1 4 1 5 5 4 3 3 4 1 7 6 6 6 7 7 7 7 7 7 7 7 8 8 10 11 12 12 11 11 12 12 13 12 11 11 11 11 12 12 12 12 13 13 12 11 9 8 8 8 8 8 7 7 7 6 5 5 5 5 6 6 7 7 7 7 7 6 6 6 6 5 5 4 3 3 3 3 2 2 3 4 3 2 3 3 4 5
1 2 2 3 1 1 2 3 2 2 4 4 2 2 6 2 2 3 2 3 6 5 6 6 7 6 6 6 7 7 8 9 11 12 13 12 10 12 11 11 13 13 12 12 12 12 12 12 11 13 12 11 11 11 10 10 9 8 7 7 7 8 7 6 5 5 6 6 5 6 6 7 7 7 7 7 6 6 5 5 5 5 4 3 3 2 3 3 2 2 4 3 2 2 3 4 5
3 1 4 5 1 5 7 1 2 6 2 4 3 6 13 12 5 3 1 2 5 6 6 7 7 7 6 7 7 8 9 11 12 11 10 11 9 11 11 11 12 13 11 13 12 12 11 10 10 11 12 11 11 10 9 8 7 6 6 6 7 7 6 7 6 6 6 6 6 7 7 7 7 8 7 7 6 6 5 5 5 6 4 4 3 3 3 4 3 2 3 4 2 3 3 4 4
4 1 3 3 5 5 3 5 2 13 6 4 6 7 11 11 5 3 2 3 6 5 3 3 4 5 5 6 7 8 9 12 9 8 8 8 8 9 11 10 11 11 12 12 13 12 12 11 10 10 11 11 9 8 6 6 6 7 7 6 6 7 7 6 7 7 6 7 6 7 7 7 7 7 7 7 7 6 5 5 6 5 4 4 4 4 4 4 4 3 3 3 4 3 3 3 2
0 1 1 4 4 8 2 4 5 5 3 7 8 8 7 8 3 2 2 1 2 4 4 4 4 6 6 7 8 9 10 11 6 7 7 9 9 8 8 9 10 12 12 13 13 13 13 13 11 12 11 11 9 8 8 8 8 7 6 9 10 8 8 7 7 7 7 7 7 7 7 7 7 7 7 7 7 6 5 5 5 5 4 4 4 5 5 4 3 3 2 1 2 3 2 1 2
4 4 3 7 2 7 2 2 3 4 3 2 2 5 9 10 4 2 1 3 5 7 6 6 7 6 6 8 9 10 9 2 4 6 8 9 9 8 8 8 9 12 12 13 14 14 13 14 13 13 10 10 10 10 10 9 9 10 10 10 9 8 8 8 8 7 8 6 7 7 7 7 8 8 7 7 6 6 6 5 6 6 5 5 5 4 4 3 3 3 2 2 2 2 3 2 3
1 3 1 2 6 5 2 3 3 1 0 4 0 4 8 5 4 2 3 7 4 8 10 10 9 7 7 7 8 7 5 6 4 6 7 9 10 9 8 8 9 12 12 13 13 13 13 13 12 12 11 11 11 11 9 10 10 9 9 8 9 7 7 7 6 7 5 7 8 8 8 8 8 8 8 7 6 6 6 6 6 5 5 5 4 4 4 5 3 4 4 4 3 1 2 3 4
5 1 1 5 3 0 2 2 2 2 1 2 1 2 6 7 4 3 3 4 2 4 7 5 6 8 10 11 9 7 8 7 9 8 9 8 9 9 9 9 9 9 9 9 11 13 12 12 11 12 11 11 10 11 11 12 11 10 8 7 4 6 4 4 5 5 6 7 8 8 8 8 8 7 7 6 6 6 7 7 5 5 6 5 6 5 5 5 4 4 3 4 3 3 1 2 1
2 3 3 2 2 1 1 1 1 1 1 3 2 3 3 5 6 8 5 4 2 1 4 4 3 4 4 3 4 7 10 10 9 8 7 7 9 12 13 12 8 8 9 10 9 10 10 13 13 13 11 12 11 11 13 10 7 5 5 3 2 3 3 3 4 5 7 7 8 6 8 8 8 8 7 7 6 8 7 6 6 6 6 5 5 5 5 5 4 4 4 3 4 4 3 2 2
4 7 10 4 2 6 4 2 4 4 3 3 0 4 3 3 3 6 8 7 4 2 3 4 4 3 3 6 7 5 6 6 9 10 10 9 10 10 11 12 11 10 10 10 10 9 10 11 12 12 11 10 11 12 12 9 9 9 7 7 7 7 7 7 8 10 7 7 8 7 7 7 8 7 7 7 7 7 7 7 6 6 6 5 5 5 5 4 5 5 4 4 4 4 4 2 3
3 3 6 3 3 6 6 2 3 1 1 3 0 4 1 4 6 10 9 7 5 2 4 3 3 3 4 4 2 3 3 4 4 4 5 8 9 9 10 12 13 12 14 11 10 10 10 10 11 12 11 10 11 11 11 9 9 9 11 12 11 10 10 9 9 7 8 8 7 7 7 7 7 8 8 7 7 7 7 6 7 6 5 5 4 5 5 5 5 5 4 4 5 3 3 4 4
1 1 4 5 5 4 6 6 5 1 1 1 5 3 1 2 4 5 10 3 7 7 8 8 6 4 3 2 1 2 3 4 4 5 6 6 6 8 11 12 12 14 13 10 10 10 11 10 9 12 11 11 11 10 11 11 11 11 11 11 10 10 11 11 10 9 7 6 7 8 7 7 7 7 8 7 7 7 7 6 7 6 6 5 5 5 5 5 4 4 4 4 3 4 5 5 5
2 2 7 4 4 5 4 6 4 0 1 3 3 2 1 2 5 7 7 4 9 6 10 7 7 5 3 2 1 2 4 5 6 6 6 7 7 9 9 9 9 10 12 13 12 11 11 11 9 9 12 12 11 12 12 12 12 12 12 11 10 10 10 10 6 5 6 6 8 7 7 7 6 7 7 8 7 7 6 6 6 6 6 6 5 5 5 5 6 6 5 4 5 4 5 5 4
3 2 5 4 5 5 4 4 4 1 2 1 1 1 2 3 5 8 6 4 7 6 7 6 5 4 5 5 5 5 4 2 3 5 6 7 8 9 9 9 8 10 10 10 11 10 10 9 10 10 12 12 11 12 12 13 14 11 10 10 12 11 9 8 6 7 7 6 8 8 7 7 6 6 6 7 7 7 7 6 6 7 7 6 5 5 6 6 6 6 6 6 5 5 4 5 6
0 5 4 1 5 2 3 6 4 4 1 2 3 0 2 1 3 4 3 3 3 5 3 3 4 4 4 3 3 4 4 4 4 3 3 4 6 7 8 9 9 9 9 9 11 12 11 11 10 10 12 11 12 13 14 14 13 12 12 13 14 13 12 10 8 8 7 6 8 8 7 7 6 7 6 6 7 7 6 6 6 7 6 6 6 6 6 6 6 6 6 6 6 6 5 5 5
2 4 1 4 2 7 3 4 4 2 1 2 0 2 4 3 1 5 2 3 2 1 1 2 3 3 3 3 5 5 5 5 6 6 7 6 7 5 4 6 7 9 9 11 11 11 11 10 11 11 11 12 12 13 14 15 13 13 13 14 14 14 13 10 12 12 11 10 10 9 7 6 6 6 5 6 6 6 6 6 7 6 6 6 6 6 6 6 6 5 5 5 5 6 4 4 4
8 4 8 5 3 5 2 7 1 0 1 0 1 0 2 1 3 2 2 1 2 2 2 2 3 3 2 3 5 5 6 7 7 7 7 7 6 7 7 7 5 6 8 10 12 11 11 11 11 13 14 13 13 14 14 15 14 14 14 14 14 13 12 12 12 12 10 10 9 9 7 8 6 6 6 6 6 7 6 6 6 7 7 7 7 7 7 6 6 6 6 6 5 6 5 5 4
5 1 1 4 1 3 0 2 1 3 4 3 1 1 0 1 4 4 2 2 3 3 2 2 2 3 2 3 4 6 7 7 7 7 7 6 6 7 7 7 7 6 8 8 9 10 10 11 12 13 15 13 11 12 13 14 15 15 15 14 14 12 12 12 11 11 10 9 9 9 8 8 8 8 7 8 7 7 6 8 8 8 8 8 7 8 7 7 7 6 6 6 6 5 4 5 6
2 3 2 4 6 2 1 2 2 2 4 3 3 1 2 4 2 1 3 2 3 2 2 2 3 4 4 2 3 5 7 7 7 8 8 8 7 6 7 7 7 8 8 8 7 9 10 11 12 13 12 11 12 13 11 13 14 15 14 14 13 11 12 11 11 11 10 9 8 8 9 8 7 7 8 7 7 7 8 7 8 8 8 8 8 7 6 6 7 6 6 6 5 4 5 4 5
1 2 3 5 2 6 1 3 2 1 0 1 2 1 1 2 1 4 1 2 2 2 2 2 3 4 2 4 7 8 7 7 7 7 9 11 10 8 7 7 7 8 9 8 9 8 9 11 13 15 15 13 12 13 13 14 15 13 14 14 14 13 11 10 9 8 8 8 9 9 9 8 8 7 6 6 7 7 7 8 7 8 9 8 7 7 7 6 6 6 6 5 5 3 4 5 5
2 1 1 2 2 7 5 2 1 2 3 1 0 3 3 5 3 4 2 1 3 1 2 2 3 5 5 7 7 8 7 7 7 8 8 9 9 9 8 8 8 8 9 9 9 9 10 11 11 13 14 13 13 12 14 14 14 13 14 15 13 11 10 11 10 11 10 9 9 8 8 8 8 7 6 5 6 7 8 8 8 8 9 8 7 8 7 7 7 6 6 6 6 4 4 6 4
5 1 3 1 2 4 3 3 2 3 2 3 1 1 4 2 3 2 1 3 3 0 2 2 3 5 8 7 6 6 7 7 6 6 5 6 7 9 9 8 9 10 9 10 10 10 9 10 11 13 13 14 13 13 14 14 14 14 13 13 13 14 13 12 12 10 9 8 8 8 6 6 7 6 6 6 7 7 8 9 8 8 7 7 7 6 7 7 7 5 6 6 6 5 4 4 4
2 1 2 1 1 0 3 3 0 0 1 2 1 1 3 5 4 1 5 5 3 2 3 4 7 7 7 8 9 7 7 9 10 10 10 9 9 9 9 11 11 10 10 9 9 9 10 11 11 13 15 14 14 12 13 13 13 11 11 13 16 16 14 13 12 11 9 8 8 8 8 8 7 7 7 7 7 7 6 7 8 7 6 6 6 6 6 6 6 6 5 5 5 4 4 5 5
1 2 1 0 2 2 1 2 3 3 2 2 3 2 3 6 5 6 6 5 3 1 4 4 4 6 5 5 5 6 8 9 9 9 9 9 10 9 10 11 12 13 11 11 10 9 10 11 12 13 13 12 11 11 11 12 12 12 12 13 14 14 14 14 12 11 9 9 9 8 9 8 8 7 7 8 7 7 7 7 6 7 6 6 6 6 6 6 6 6 6 5 4 5 5 4 1
5 6 3 2 2 1 3 1 1 2 4 3 2 2 6 5 3 3 5 3 1 1 1 2 3 4 5 5 6 7 7 8 8 8 8 9 10 10 10 10 10 10 9 9 9 10 10 10 10 12 13 13 12 12 11 12 11 13 14 15 15 14 15 12 9 7 9 9 8 8 8 7 6 8 7 7 7 6 7 6 6 6 7 6 7 6 6 6 6 7 6 6 5 5 5 3 4
1 2 1 3 0 0 1 3 2 2 2 2 3 4 6 6 1 3 3 2 3 2 2 3 3 4 5 5 5 5 6 7 8 8 8 8 9 10 10 10 9 9 9 10 10 9 10 9 9 9 10 10 11 11 11 12 11 12 15 15 15 12 6 3 3 6 9 9 6 7 7 6 8 7 7 8 8 7 6 7 6 6 6 6 6 7 6 6 7 7 6 5 4 6 6 6 5
Wind_Direction
140 90 86 99 109 142 129 263 85 311 65 39 71 5 219 251 199 86 101 129 112 179 136 115 128 145 155 192 187 182 215 153 236 136 201 241 162 150 138 136 136 136 140 145 158 162 154 157 158 157 150 140 134 135 141 129 123 129 120 125 127 125 120 121 120 118 117 115 112 113 105 96 93 85 75 63 53 42 34 25 17 12 4 355 5 347 342 342 340 341 345 345 346 347 346 341 335
112 108 104 133 166 152 275 133 99 356 38 80 10 237 272 282 73 134 146 140 130 157 143 134 151 148 30 129 142 120 22 17 173 168 260 116 118 134 139 140 141 140 143 149 158 156 155 161 162 157 151 140 137 139 139 132 131 124 128 125 122 124 127 124 125 127 129 133 130 125 124 119 111 99 81 60 46 25 14 1 6 359 352 344 337 331 329 328 328 329 330 335 341 341 338 331 327
128 123 143 148 343 151 141 138 71 103 78 71 289 219 278 48 108 148 93 88 182 130 140 131 140 77 98 92 92 117 217 90 100 96 86 126 136 181 149 140 141 137 144 152 158 154 156 163 164 157 148 141 139 141 140 134 131 130 129 128 130 127 125 129 132 132 130 129 128 124 119 117 113 108 93 82 40 30 358 345 332 339 339 333 335 330 323 319 319 322 327 330 334 338 333 328 324
129 151 135 174 307 35 83 26 83 127 90 176 26 296 170 163 134 124 73 339 87 121 131 134 141 178 121 169 171 84 103 215 189 148 139 169 204 150 147 140 137 136 145 153 156 153 152 167 161 156 147 143 143 144 142 140 138 135 136 137 137 135 136 138 140 138 136 129 123 125 128 130 130 133 126 101 78 21 7 331 332 336 338 334 326 323 321 318 319 325 327 330 332 332 327 325 324
138 164 132 113 95 320 113 129 123 82 91 209 125 242 72 245 139 113 42 65 77 79 136 137 86 11 156 141 133 170 219 77 123 206 121 164 115 147 142 138 135 143 152 157 150 153 162 165 160 155 148 145 146 149 145 145 143 144 146 142 141 139 137 142 137 131 123 120 122 132 135 134 135 130 124 105 78 11 301 314 319 324 330 326 324 323 320 319 320 322 324 327 328 328 324 321 321
70 81 19 100 225 215 47 33 3 28 216 119 111 193 170 269 117 107 99 68 51 55 352 141 146 165 117 297 168 156 157 154 177 210 155 192 145 150 141 137 139 150 153 154 151 154 172 164 162 154 151 150 151 151 146 146 147 151 143 142 140 145 143 146 139 126 123 132 135 136 137 134 142 143 133 103 13 305 316 315 319 322 322 323 321 320 319 316 318 323 325 327 327 326 324 324 322
155 82 315 190 294 79 117 125 145 121 309 149 153 312 190 159 128 121 110 87 44 20 31 78 107 81 68 249 55 12 139 129 133 196 161 145 141 147 142 141 143 150 154 153 149 156 177 165 158 155 154 155 153 151 148 149 151 150 149 147 149 153 154 153 144 146 148 149 152 154 174 168 183 209 230 249 337 333 327 324 321 319 321 319 321 321 319 319 321 325 327 325 324 324 323 323 323
86 38 292 68 296 55 42 110 121 173 318 125 61 62 148 184 155 136 120 87 157 152 230 67 62 69 278 357 163 274 74 92 116 117 121 141 145 147 144 144 147 151 154 151 149 155 175 164 157 159 159 158 155 152 151 155 157 157 156 158 161 164 162 154 155 163 168 163 157 192 228 154 193 323 334 6 0 339 333 324 319 319 318 320 319 318 318 318 322 324 324 323 321 321 322 322 322
321 146 281 75 25 24 68 55 289 307 45 15 67 336 98 111 140 131 100 46 83 103 141 133 80 86 264 24 57 293 12 96 108 120 132 143 150 150 147 150 149 151 153 153 153 158 175 165 162 164 162 160 159 155 158 163 160 164 166 167 173 168 166 161 174 174 170 172 190 220 240 50 54 43 349 342 334 328 320 316 316 316 318 318 319 318 316 318 322 322 322 320 318 320 320 319 321
315 60 334 104 134 17 2 333 50 327 154 103 76 136 137 261 104 64 114 78 36 139 139 125 119 114 242 96 82 358 137 124 116 112 139 147 151 149 149 152 150 150 151 155 159 163 167 169 168 168 166 164 163 162 165 167 164 165 169 172 178 178 178 171 184 179 185 192 211 233 244 257 275 306 308 313 316 314 312 312 312 313 315 317 316 315 316 318 318 318 318 318 318 318 319 318 320
299 355 128 51 28 15 24 317 8 326 350 39 80 118 109 129 110 109 123 112 93 128 127 154 87 138 156 309 184 290 125 136 129 144 150 153 153 151 150 151 149 150 154 155 162 162 168 169 173 174 170 167 168 167 168 169 169 171 177 177 186 187 188 191 190 196 203 205 220 238 241 251 274 283 296 304 310 309 307 308 307 310 314 315 314 313 313 315 315 315 315 316 316 316 316 316 317
349 346 9 97 57 118 326 338 327 313 329 56 71 128 205 124 136 130 158 133 168 268 171 176 189 145 85 68 318 64 133 153 140 141 148 151 153 150 148 147 148 150 154 155 162 164 168 167 171 177 173 170 170 170 172 173 175 179 184 182 190 191 201 203 205 212 222 217 234 242 252 264 278 287 292 299 304 305 305 306 306 307 313 316 315 314 315 315 312 311 310 311 314 313 311 311 311
305 33 56 77 98 5 294 8 317 311 353 339 137 105 169 104 179 174 150 111 154 149 259 200 140 86 97 149 295 112 146 154 141 141 145 153 150 146 145 144 148 146 152 156 161 167 163 164 167 177 174 171 173 174 176 179 180 185 190 189 192 199 210 210 212 218 227 233 241 251 261 273 280 288 294 297 300 303 306 306 306 306 308 313 316 317 317 317 312 310 310 310 309 309 307 305 306
32 218 105 63 5 61 338 300 334 13 311 197 115 148 175 140 204 172 145 135 196 176 247 149 140 122 92 70 159 178 174 143 146 139 141 146 142 143 143 145 146 149 153 159 165 166 161 166 168 172 176 170 171 178 182 186 185 188 195 197 197 204 216 220 216 220 229 234 242 254 265 271 277 284 288 293 298 301 305 306 306 307 306 305 310 313 315 313 311 311 309 308 306 304 302 299 298
305 101 76 109 59 45 256 67 244 72 276 145 179 146 140 197 149 149 155 136 237 185 57 116 164 127 232 155 237 191 158 154 146 136 140 137 139 138 142 144 146 151 155 163 166 168 167 168 169 171 174 161 168 168 174 189 187 193 198 201 205 212 217 227 229 232 236 241 249 253 263 270 273 273 282 290 294 298 298 300 302 303 304 304 305 307 311 313 314 312 308 305 303 301 299 297 297
149 71 78 83 315 126 238 134 69 66 271 163 170 133 130 122 171 128 237 148 133 119 146 186 241 184 181 181 221 154 144 145 145 136 136 138 135 134 139 144 148 155 160 166 171 175 169 170 170 172 171 164 161 157 168 177 193 193 200 202 210 217 219 222 226 233 239 245 248 251 263 274 280 293 295 302 315 306 309 310 308 307 307 306 306 309 311 313 314 314 312 311 306 302 301 300 299
83 83 341 23 285 150 235 161 145 211 240 288 132 138 150 182 151 115 105 329 137 176 196 162 180 98 159 168 125 129 138 139 143 137 137 142 143 146 145 149 154 162 170 174 180 179 174 174 176 172 173 160 153 158 162 174 207 195 201 208 210 215 221 225 222 233 238 247 251 261 262 278 319 329 313 310 300 303 298 300 301 302 305 308 311 314 317 319 317 316 313 311 307 304 303 302 299
63 45 114 346 206 140 206 176 191 202 143 200 181 174 139 170 152 183 142 69 59 166 191 118 35 34 113 107 122 130 138 145 152 146 151 151 156 156 162 165 167 175 175 177 186 183 178 181 183 172 165 163 154 154 160 176 195 202 189 211 215 215 228 232 232 225 238 241 257 264 299 296 310 314 294 293 296 297 295 291 296 303 307 310 316 323 326 324 324 325 321 314 309 309 313 314 309
121 130 97 241 188 237 175 184 193 138 242 177 183 155 173 224 146 196 133 185 140 148 224 129 71 74 95 115 127 136 144 150 158 155 156 159 165 167 168 168 175 172 179 181 186 187 185 182 178 178 171 162 154 156 166 178 193 219 192 192 215 216 224 238 227 241 224 240 254 278 290 324 313 297 292 282 283 282 293 300 307 312 312 319 324 326 329 329 331 330 323 313 317 322 326 314 303
228 108 296 254 213 246 229 189 197 219 136 142 162 191 159 243 161 125 172 163 164 184 180 133 145 147 134 134 139 144 150 157 163 160 162 164 167 170 169 172 177 179 182 184 182 188 185 183 184 181 173 163 161 168 164 183 196 193 193 196 196 211 243 255 239 239 222 231 253 275 284 292 292 291 293 299 305 315 314 310 311 315 320 323 323 332 330 330 336 329 321 320 326 331 322 312 301
251 104 203 237 213 135 260 181 234 236 51 142 129 86 175 250 218 160 180 129 223 231 204 177 180 160 148 149 149 151 154 161 167 167 165 169 171 175 174 177 178 175 179 175 183 191 188 185 182 179 177 172 170 178 177 187 184 195 206 201 190 187 215 249 246 236 249 235 247 266 283 280 284 290 291 293 289 296 300 296 305 306 312 312 325 330 329 325 336 329 329 327 328 335 330 320 309
120 216 205 206 112 325 259 206 191 126 74 99 128 146 219 125 89 209 169 175 208 208 208 191 153 155 151 156 159 157 160 165 171 171 175 176 176 176 173 174 172 169 171 184 189 188 191 189 184 180 184 187 183 182 183 185 186 205 193 210 204 201 207 227 235 237 241 244 246 260 274 278 284 289 290 290 289 290 295 287 291 299 312 306 322 321 323 329 329 327 325 317 324 329 319 310 310
249 298 247 226 209 173 249 168 200 134 118 142 160 213 108 161 244 211 199 209 219 359 155 171 156 164 163 154 154 163 165 171 175 179 176 178 180 180 179 177 175 177 181 190 184 191 189 190 186 182 192 192 193 185 174 183 195 202 179 194 212 224 213 227 233 230 232 230 243 252 260 272 278 283 286 286 287 291 286 286 290 303 300 298 310 323 320 323 321 325 320 315 318 330 328 322 323
154 258 303 306 174 211 188 162 140 143 139 201 184 123 164 184 252 188 214 241 245 328 169 158 157 151 149 156 168 169 173 175 180 180 181 182 181 184 179 177 176 167 179 186 188 191 192 195 190 184 194 195 197 191 185 183 200 196 189 209 218 217 210 225 234 227 220 222 226 236 252 263 272 278 280 283 283 293 277 283 285 293 293 290 306 306 315 321 323 321 321 320 328 332 330 328 332
201 259 234 250 132 248 201 132 153 163 196 59 95 134 220 187 187 16 242 245 235 302 118 140 145 151 161 164 170 171 172 172 174 178 180 183 183 179 180 177 175 175 188 191 188 190 196 191 192 196 199 200 198 194 199 200 195 203 193 205 223 217 221 224 230 243 234 237 236 231 243 256 260 265 272 274 286 280 283 282 284 278 289 288 319 308 315 318 318 317 323 318 320 325 325 321 329
201 230 155 92 257 351 138 120 163 164 151 144 106 226 271 258 316 278 246 252 192 142 128 141 147 155 166 172 172 172 175 177 174 177 183 178 176 179 185 184 182 189 193 186 187 196 194 191 192 198 199 198 195 193 205 204 195 205 211 215 218 213 219 202 199 221 228 222 238 234 239 241 246 253 263 271 269 277 280 282 278 278 286 287 294 291 305 305 303 313 314 319 322 326 321 319 329
178 218 202 137 305 352 101 176 199 172 164 176 171 234 236 327 138 272 286 240 140 141 146 154 155 167 172 172 177 176 174 178 180 174 170 178 180 187 188 187 190 194 182 190 192 192 191 191 198 197 199 198 193 199 205 209 198 208 215 217 218 217 225 201 218 223 221 218 230 234 234 235 245 246 253 261 264 265 274 275 269 279 282 281 264 276 293 291 297 288 297 314 318 318 312 311 318
205 146 98 57 339 139 118 81 177 126 262 172 178 233 230 295 109 242 234 59 158 146 152 164 169 170 176 176 178 179 180 180 174 173 181 181 187 187 187 189 193 189 188 193 191 184 188 198 198 197 198 197 196 204 207 210 206 208 213 218 223 221 202 209 221 224 232 217 216 228 230 232 240 249 247 256 254 263 262 258 262 269 269 277 277 274 294 310 302 298 293 286 287 295 304 309 309
299 136 244 308 0 343 229 192 203 149 245 149 144 340 287 169 227 241 235 123 149 149 160 170 177 177 177 178 179 180 184 178 180 185 189 191 187 186 189 191 190 191 195 191 185 182 192 194 198 200 198 199 201 205 207 212 211 207 204 212 218 213 207 209 219 224 222 213 207 215 225 229 230 241 245 246 253 251 254 257 263 254 258 272 285 286 301 311 321 321 309 308 299 319 318 321 321
97 46 137 13 3 327 288 17 89 141 272 144 115 335 278 240 236 231 138 126 134 142 167 175 180 179 179 177 182 185 180 182 191 193 191 191 189 189 192 188 189 192 189 189 184 190 190 191 197 198 200 203 205 205 206 211 212 209 204 211 218 212 215 215 221 219 214 211 209 214 223 224 231 232 239 246 241 247 247 249 250 257 252 258 272 287 306 310 318 312 303 328 326 339 320 307 318
186 264 72 138 21 274 298 183 155 142 163 155 88 198 286 273 271 272 258 142 148 163 176 175 177 178 178 179 183 188 193 193 193 193 194 193 192 192 194 188 190 190 186 189 193 191 187 190 190 201 202 207 206 207 207 211 210 208 205 212 209 204 213 217 225 223 218 217 204 220 221 225 229 231 231 238 241 236 242 246 242 242 245 247 271 275 272 292 283 289 302 319 313 314 298 292 302
30 17 302 330 174 279 303 247 169 171 22 131 104 322 245 280 297 299 224 158 154 164 174 178 175 179 181 180 186 193 197 198 200 199 196 195 195 196 194 194 192 192 193 193 194 189 192 191 191 202 201 206 207 207 208 208 207 206 206 211 213 202 214 215 220 219 218 213 212 221 223 226 229 230 231 227 235 230 231 238 244 244 239 237 249 267 263 292 309 300 284 236 313 302 324 310 317
353 101 271 292 32 276 335 276 230 79 114 356 179 226 321 317 296 342 91 153 162 158 171 178 181 184 182 185 189 194 195 202 203 200 198 200 199 199 197 197 194 197 197 192 194 194 197 195 193 200 204 205 209 208 208 207 204 206 206 209 213 207 211 219 220 219 218 215 217 224 227 228 232 231 230 224 224 228 226 233 245 237 229 229 255 274 300 285 305 301 292 276 201 268 304 306 310
325 17 238 208 190 281 260 303 242 217 146 193 239 226 238 228 298 12 55 154 149 164 175 180 184 187 190 186 190 193 199 202 205 204 199 204 199 199 199 198 198 198 200 198 195 196 200 197 198 203 207 207 208 209 206 205 206 207 207 208 209 211 215 217 217 214 220 222 219 226 226 230 235 232 228 221 221 227 225 233 244 240 228 215 228 276 288 303 291 219 271 280 228 240 297 308 306
293 348 344 320 324 204 240 282 249 141 230 167 183 239 269 261 268 309 194 157 164 174 180 183 182 186 189 195 195 200 203 209 212 208 200 200 200 199 200 199 200 199 202 201 198 199 200 202 201 204 207 206 207 206 205 205 206 210 214 214 216 217 219 220 218 217 219 218 219 225 224 227 233 231 226 217 219 222 223 229 239 241 224 224 228 263 285 300 303 221 238 276 281 246 244 273 275
298 198 216 208 295 287 210 240 244 171 173 199 174 212 241 266 281 288 257 182 175 178 146 158 188 191 193 198 203 204 210 220 215 208 203 202 203 197 200 198 199 200 202 202 201 199 201 203 203 205 209 208 204 201 192 196 195 203 209 214 224 224 219 219 220 222 217 218 218 219 221 224 227 227 222 215 218 221 217 222 230 229 220 214 232 245 257 266 280 278 245 246 288 293 230 251 260
157 103 178 248 244 286 293 265 253 187 98 222 211 234 259 278 279 289 269 150 188 179 181 184 194 194 196 202 208 212 215 222 206 203 201 202 206 204 203 199 200 199 200 201 201 202 200 201 200 206 207 205 197 193 192 192 195 201 210 215 222 217 216 215 221 221 221 222 217 217 218 223 224 226 222 210 215 221 221 221 222 231 210 210 217 230 230 249 246 235 243 207 249 305 300 241 245
240 256 258 292 160 270 270 300 336 210 162 317 218 244 266 259 314 286 2 137 210 207 204 213 203 202 204 204 211 215 220 204 175 193 198 194 202 216 211 209 200 200 202 200 202 201 201 201 203 207 205 203 202 198 198 197 200 200 198 206 207 211 209 212 223 221 221 221 218 217 219 219 220 220 222 210 216 209 219 216 216 226 204 215 219 221 230 234 260 262 218 268 208 222 256 267 284
178 224 241 324 272 244 306 328 320 152 65 275 296 210 269 321 303 265 179 195 206 203 203 209 191 196 208 215 220 220 209 211 204 208 200 200 192 204 219 216 216 207 200 202 202 201 200 202 205 205 203 201 204 202 195 204 205 207 202 210 203 215 216 216 222 222 214 222 222 220 219 217 216 221 218 213 213 211 217 217 223 215 210 206 217 226 228 246 237 242 212 220 257 236 250 266 274
234 164 113 226 240 37 309 303 27 44 118 293 252 197 295 328 316 314 284 244 240 203 205 209 188 199 203 211 209 206 216 211 212 207 207 200 186 197 217 225 219 218 211 201 200 201 201 203 204 204 205 203 205 203 203 210 207 205 210 215 208 210 205 204 218 221 219 221 229 222 218 215 213 217 210 210 215 218 214 219 221 205 215 200 207 220 220 233 236 238 226 217 194 267 304 299 267
298 183 170 237 248 254 156 252 50 14 349 98 59 37 340 359 6 352 321 300 281 279 163 189 221 214 215 216 220 210 216 212 216 211 213 201 188 193 209 220 221 219 218 210 197 198 202 202 203 202 204 204 205 204 206 206 200 194 201 199 174 208 247 202 194 221 217 219 227 220 220 211 213 218 216 211 214 223 218 218 215 214 208 200 193 206 217 222 225 227 218 211 193 210 246 245 301
290 223 190 193 190 117 99 113 84 27 320 277 96 31 325 299 317 2 325 345 4 341 167 217 225 232 205 216 223 221 228 220 216 213 208 205 207 208 210 210 216 221 222 221 211 201 200 202 202 202 203 206 208 206 204 192 194 194 176 186 200 208 218 211 212 215 208 211 217 218 220 212 211 217 219 217 216 221 220 215 211 208 205 198 197 203 212 218 225 226 221 212 221 206 228 200 264
57 290 178 172 112 115 129 152 84 37 118 324 338 135 263 333 12 351 336 333 336 338 31 353 329 281 252 252 286 265 257 255 265 254 224 214 212 211 215 209 216 213 222 216 215 214 206 200 200 200 201 205 208 208 198 192 196 195 195 200 204 204 212 223 222 219 214 218 215 215 217 210 208 212 220 215 217 219 218 209 206 208 205 198 196 189 203 218 225 227 228 198 218 199 163 220 234
310 254 124 104 103 128 186 162 164 175 225 357 39 101 145 315 305 345 325 355 15 25 1 347 331 309 275 284 229 233 234 233 226 228 227 230 223 220 224 220 211 218 221 217 222 220 217 210 198 200 201 204 205 203 196 195 197 198 200 208 209 211 212 223 214 216 213 212 209 219 216 212 206 209 216 216 217 217 212 208 201 199 200 203 189 200 209 213 221 238 229 211 198 181 182 207 244
218 211 153 159 165 208 147 149 172 132 145 295 334 359 66 268 284 327 356 25 0 359 350 343 342 346 0 19 297 231 214 205 204 219 220 215 219 221 229 233 230 228 224 217 218 219 220 218 210 199 202 203 206 201 197 198 201 200 202 204 210 217 219 226 217 209 208 204 213 218 214 215 206 208 211 217 217 213 204 206 193 194 199 201 197 202 209 207 216 225 222 200 204 196 189 206 214
283 162 70 68 67 52 123 135 133 355 69 276 278 41 141 285 300 344 344 46 357 335 326 335 345 5 32 37 27 24 10 327 255 228 217 213 212 219 221 225 219 222 227 228 225 225 225 220 213 202 204 203 204 201 200 201 203 201 203 206 209 216 215 221 203 205 206 195 211 214 210 212 209 205 210 216 217 208 209 196 188 196 201 198 201 203 202 208 214 218 216 205 206 208 198 200 206
123 87 112 41 59 57 33 66 103 58 53 255 249 286 135 292 291 302 355 336 275 305 321 327 336 356 17 26 29 14 8 10 13 351 307 264 239 223 212 216 215 215 221 219 221 225 223 218 216 211 208 204 202 201 200 203 203 202 205 206 209 213 211 207 202 213 206 196 211 215 209 214 210 213 203 212 211 202 201 196 194 200 198 199 202 199 205 209 213 214 217 208 206 208 199 197 222
94 41 58 14 340 19 33 348 38 91 286 262 268 83 160 177 298 303 263 294 290 256 344 323 330 336 347 4 7 1 359 7 5 3 0 354 345 314 266 236 215 211 211 214 215 217 223 223 214 214 215 206 204 203 202 205 202 205 208 207 211 214 208 204 204 211 206 206 208 214 212 207 217 217 214 214 211 200 196 202 202 196 199 200 206 204 206 208 214 211 212 204 212 211 207 204 211
41 39 28 79 279 31 276 10 6 38 167 105 295 10 27 54 215 212 291 273 291 288 235 258 288 305 333 356 2 357 4 7 5 358 353 353 350 342 334 313 285 237 220 217 214 210 214 220 218 213 214 210 206 202 203 205 203 206 208 210 214 215 210 207 208 212 208 207 210 214 205 214 211 215 213 210 213 199 195 198 199 202 206 207 209 205 214 210 212 214 213 214 212 212 210 200 203
35 355 123 75 48 35 302 275 231 307 296 255 281 340 76 273 294 228 225 253 229 237 270 279 290 287 307 3 9 11 9 8 359 351 346 342 339 333 326 318 311 290 263 238 221 214 213 216 216 216 217 205 206 207 206 205 207 208 208 210 213 211 211 209 211 212 210 208 206 211 208 208 204 207 206 213 210 197 197 203 202 207 210 208 204 207 209 212 211 214 213 216 220 219 204 212 225
237 146 147 209 143 160 255 224 244 217 213 279 296 43 232 144 237 198 210 238 264 256 241 269 279 290 289 323 12 23 13 2 356 347 342 335 331 329 323 316 310 306 297 276 248 223 218 219 218 220 220 207 202 206 205 206 210 212 211 212 213 210 211 209 211 211 208 204 203 205 211 209 205 206 206 213 208 199 203 203 205 207 208 209 207 206 207 210 210 213 213 219 222 210 213 224 236
312 145 83 82 231 147 181 212 152 209 222 346 351 213 167 161 240 265 268 332 310 307 327 317 287 274 317 20 22 12 1 354 349 340 334 333 333 333 328 322 316 308 303 298 275 252 230 224 221 221 220 211 202 204 206 208 211 211 211 210 213 211 211 211 214 211 209 207 205 206 207 207 210 203 203 202 206 200 203 204 203 210 210 207 204 204 205 204 202 202 210 207 219 213 218 222 235
258 105 239 223 176 102 89 87 45 86 48 242 224 335 309 298 324 238 256 36 263 298 279 282 298 337 16 25 13 2 349 342 339 335 333 326 330 332 330 323 317 309 305 297 294 278 256 239 230 228 226 224 212 205 210 210 211 211 212 212 211 211 212 214 213 208 202 203 204 203 205 206 206 201 197 196 200 206 209 207 205 209 210 209 206 206 201 201 195 195 203 204 218 218 214 226 219
78 81 245 126 111 114 125 210 350 59 171 255 38 224 300 30 257 325 259 281 244 202 301 293 357 9 19 7 6 349 335 323 310 305 303 309 317 323 325 317 313 309 299 294 290 286 278 258 236 231 230 225 218 210 211 212 210 211 211 210 206 208 207 210 216 216 207 202 202 202 202 200 204 198 197 191 199 203 211 211 210 213 210 206 207 202 201 201 192 195 199 199 215 206 208 227 216
178 194 198 114 268 256 320 91 240 76 271 276 325 272 257 186 248 291 231 217 251 325 338 12 11 12 6 358 344 332 334 343 340 337 334 331 331 329 326 320 315 308 299 292 286 282 279 270 247 230 229 225 218 211 212 212 207 207 207 205 204 209 209 212 212 213 207 201 196 197 197 203 204 201 197 197 198 202 203 211 211 212 210 208 204 204 200 200 190 200 197 204 202 191 203 223 225
23 72 59 322 104 157 125 206 175 124 232 57 292 34 241 209 217 192 217 216 235 283 16 17 3 11 351 331 311 326 349 341 327 320 317 316 322 326 325 321 319 317 313 305 298 288 279 272 254 239 231 227 222 218 214 213 207 206 210 211 213 213 210 210 209 206 203 202 201 196 199 199 202 198 202 200 199 200 203 204 204 209 206 203 199 203 191 195 189 204 200 202 193 178 198 225 265
332 27 341 356 8 224 96 39 73 181 170 180 161 332 275 266 241 208 212 210 207 174 96 25 13 334 323 304 318 345 335 319 308 303 304 314 322 326 323 319 313 310 305 302 300 298 292 281 260 241 230 224 218 215 210 213 207 209 210 211 212 212 214 212 211 219 217 210 207 202 201 198 188 200 196 193 199 204 205 208 208 208 208 201 202 202 195 193 194 204 206 208 186 158 156 165 179
167 147 132 186 288 66 148 253 9 72 97 196 128 235 267 269 213 265 258 189 137 190 106 30 338 330 297 297 324 331 310 295 293 300 309 317 322 321 318 314 312 313 315 317 314 307 309 303 270 248 234 227 217 213 210 212 211 210 211 213 215 214 214 155 89 19 345 313 260 218 193 174 181 190 184 188 194 195 200 197 197 201 205 199 201 208 199 188 197 202 208 199 168 155 174 174 175